Starlink 32789

operational
NORAD ID: 62529 Int'l Des: 2025-004 Owner: SPXS Country: US Constellation: starlink
LEOCIRCULAR

关于 Starlink 32789

正在加载描述...

实时位置

正在加载3D地球...

即将过境

高度历史

Altitude vs Time

uPlot chart will show altitude changes over time

两行轨道根数

1 62529U 25004U 25306.48893748 .00028703 00000-0 10474-2 0 9990
2 62529 43.0028 218.3463 0001479 285.3720 74.6968 15.27614596 47005
Epoch: Nov 2, 2025 • Age: 37 hours

当前状态

高度 492.0 km
速度 7.62 km/s
星下点 -34.56°S, 20.53°E
发射日期 Jan 8, 2025
运行时间 0.8 years
类型 internet

技术详情

分类 Payload
质量 730.00 kg
干质量 700.00 kg
总质量 730.00 kg
长度 0.30 m
直径 4.10 m
跨度 29.00 m
形状 Box + pan
制造商 SPXS
平台类型 Starlink V2M
阶段状态 In Orbit
所有者/国家 SPXS/US

大型星座

Loading constellations...